This is the latest recevied weather packets stored in our database for station/object W5GMO. If no packets are shown the sender has not sent any weather packets the latest 10 day(s).
| Time | Temp. | Humidity | Pressure | Rain* | Wind** | Luminosity | Snow |
|---|---|---|---|---|---|---|---|
| 1787956504 | 30° C | 1% | 1016.9 hPa | 0 mm | - | 116 W/m² | - |
| 1787956199 | 30° C | 1% | 1016.9 hPa | 0 mm | - | 102 W/m² | - |
| 1787955898 | 30° C | 1% | 1016.8 hPa | 0 mm | - | 103 W/m² | - |
| 1787955594 | 30° C | 1% | 1017 hPa | 0 mm | - | 105 W/m² | - |
| 1787955290 | 30° C | 1% | 1016.7 hPa | 0 mm | - | 125 W/m² | - |
| 1787954989 | 30° C | 1% | 1016.8 hPa | 0 mm | - | 132 W/m² | - |
| 1787954685 | 30° C | 1% | 1016.9 hPa | 0 mm | - | 134 W/m² | - |
| 1787954385 | 30° C | 1% | 1017 hPa | 0 mm | - | 126 W/m² | - |
| 1787954080 | 30° C | 1% | 1016.8 hPa | 0 mm | - | 107 W/m² | - |
| 1787953779 | 29.44° C | 1% | 1016.9 hPa | 0 mm | - | 142 W/m² | - |
| 1787953475 | 30° C | 1% | 1016.9 hPa | 0 mm | - | 142 W/m² | - |
| 1787953172 | 30.56° C | 1% | 1016.8 hPa | 0 mm | - | 150 W/m² | - |
| 1787952866 | 30.56° C | 1% | 1016.7 hPa | 0 mm | - | 305 W/m² | - |
| 1787952566 | 30.56° C | 1% | 1016.7 hPa | 0 mm | - | 267 W/m² | - |
| 1787952264 | 31.11° C | 1% | 1016.6 hPa | 0 mm | - | 230 W/m² | - |
| 1787951961 | 31.11° C | 1% | 1016.4 hPa | 0 mm | - | 305 W/m² | - |
| 1787951651 | 31.67° C | 1% | 1016.6 hPa | 0 mm | - | 346 W/m² | - |
| 1787951347 | 31.11° C | 1% | 1016.4 hPa | 0 mm | - | 355 W/m² | - |
| 1787951042 | 30.56° C | 1% | 1016.6 hPa | 0 mm | - | 191 W/m² | - |
| 1787950737 | 30° C | 1% | 1016.5 hPa | 0 mm | - | 170 W/m² | - |
| 1787950433 | 30.56° C | 1% | 1016.6 hPa | 0 mm | - | 297 W/m² | - |
| 1787950129 | 31.67° C | 1% | 1016.3 hPa | 0 mm | - | 209 W/m² | - |
| 1787949825 | 31.67° C | 1% | 1016.5 hPa | 0 mm | - | 367 W/m² | - |
| 1787949525 | 31.67° C | 1% | 1016.2 hPa | 0 mm | - | 169 W/m² | - |
| 1787949220 | 32.22° C | 1% | 1016.3 hPa | 0 mm | - | 238 W/m² | - |
* Rain latest hour (hover to see other rain measurements)
** Current wind speed in m/s (hover to see current wind gust speed)